Home   Weather   Phnom Penh   Past weeks

Flag for Cambodia Past Weather in Phnom Penh, Cambodia — Yesterday and Last 2 Weeks

75 °F

Strong thunderstorms. Partly cloudy.

Feels Like: 75 °F
Forecast: 75 / 89 °F
Wind: 10 mph from Southeast

Location: Phnom-Penh / Pochentong

Current Time: Oct 28, 2016 at 9:07:43 PM

Latest Report: Oct 28, 2016 at 8:30 PM

Visibility: 0 mi

Pressure: 29.89 "Hg

Humidity: 89%

Dew Point: 72 °F

Location of Phnom PenhLocation

Past Weather in Phnom Penh — Graph


Phnom Penh Temperature Yesterday

Maximum temperature yesterday: 93 °F (at 2:30 PM)
Minimum temperature yesterday: 75 °F (at 6:30 PM)
Average temperature yesterday: 83 °F

High & Low Weather Summary for the Past Weeks

High93 °F (Oct 27, 2:30 PM)100% (Oct 14, 7:30 PM)29.92 "Hg (Oct 14, 7:30 PM)
Low75 °F (Oct 27, 6:30 PM)20% (Oct 24, 7:00 PM)29.59 "Hg (Oct 14, 2:00 PM)
Average83 °F83%29.73 "Hg
* Reported Oct 13 8:00 PM — Oct 28 8:00 PM, Phnom Penh, Weather by CustomWeather, © 2016

Note: Actual official high and low records may vary slightly from our data, if they occured in-between our weather recording intervals... More about our weather records


Phnom Penh Weather History for the Previous 24 Hours

Scroll right to see more
Time TempWeatherWind HumidityBarometerVisibility
8:00 PM
Fri, Oct 28
86 °FThundershowers. Passing clouds.1 mph75%29.80 "Hg6 mi
7:30 PM86 °FThundershowers. Passing clouds.1 mph75%29.80 "HgN/A
7:00 PM86 °FThundershowers. Passing clouds.2 mph75%29.77 "HgN/A
6:30 PM86 °FPassing clouds.1 mph75%29.77 "HgN/A
6:00 PM86 °FPassing clouds.2 mph75%29.77 "HgN/A
5:30 PM86 °FPassing clouds.3 mph75%29.74 "HgN/A
5:00 PM88 °FScattered clouds.6 mph70%29.74 "HgN/A
4:30 PM88 °FScattered clouds.6 mph70%29.71 "HgN/A
4:00 PM90 °FScattered clouds.7 mph67%29.71 "HgN/A
3:30 PM90 °FScattered clouds.6 mph59%N/AN/A
3:00 PM90 °FScattered clouds.6 mph63%29.74 "HgN/A
2:30 PM88 °FScattered clouds.5 mph66%29.74 "HgN/A
2:00 PM90 °FScattered clouds.6 mph63%29.74 "HgN/A
1:30 PM90 °FScattered clouds.N/A67%29.77 "HgN/A
1:00 PM88 °FPartly sunny.7 mph66%29.80 "HgN/A
12:30 PM86 °FPartly sunny.7 mph75%29.80 "HgN/A
12:00 PM86 °FPartly sunny.7 mph75%29.83 "HgN/A
11:30 AM86 °FPartly sunny.6 mph75%29.83 "HgN/A
11:00 AM86 °FPartly sunny.7 mph75%29.83 "HgN/A
10:30 AM84 °FPartly sunny.5 mph79%29.86 "HgN/A
10:00 AM82 °FPartly sunny.3 mph79%29.86 "HgN/A
9:30 AM84 °FScattered clouds.5 mph79%29.86 "HgN/A
9:00 AM81 °FScattered clouds.5 mph89%29.89 "HgN/A
8:30 AM81 °FScattered clouds.5 mph89%29.86 "HgN/A
8:00 AM79 °FScattered clouds.5 mph94%29.86 "HgN/A
7:30 AM79 °FPassing clouds.5 mph94%29.86 "HgN/A
7:00 AM77 °FPassing clouds.2 mph100%29.86 "HgN/A
6:30 AM77 °FPassing clouds.2 mph94%29.83 "HgN/A
6:00 AM77 °FScattered clouds.No wind94%29.83 "Hg6 mi
2:30 AM77 °FPassing clouds.1 mph94%29.80 "Hg6 mi
2:00 AM77 °FPassing clouds.1 mph94%29.83 "Hg6 mi
1:30 AM77 °FPassing clouds.1 mph94%29.83 "Hg6 mi
1:00 AM77 °FPassing clouds.2 mph94%29.86 "Hg6 mi
12:30 AM77 °FPassing clouds.1 mph94%29.86 "Hg6 mi
12:00 AM77 °FPassing clouds.No wind94%29.86 "Hg6 mi
11:30 PM
Thu, Oct 27
77 °FLight rain. Partly cloudy.2 mph94%29.86 "Hg6 mi
10:30 PM75 °FLight rain. Partly cloudy.5 mph100%29.89 "Hg5 mi
10:00 PM75 °FLight rain. Partly cloudy.6 mph100%29.92 "Hg5 mi
9:30 PM75 °FLight rain. Partly cloudy.7 mph100%29.92 "Hg5 mi
9:00 PM75 °FLight rain. Partly cloudy.8 mph100%29.92 "Hg5 mi
Weather by CustomWeather, © 2016

See weather overviewHow to use our weather pages